Location: Bratislava
(48.1500°N, 17.1170°E)
Time: 22:12:41
(UTC+02:00)

Envisat - Visible Passes

Search period start: 23 September 2018 00:00
Search period end: 03 October 2018 00:00
Orbit: 764 x 766 km, 98.2° (Epoch: 22 September)

Date Brightness Start Highest point End Pass type
(mag) Time Alt. Az. Time Alt. Az. Time Alt. Az.
23 Sep 4.0 20:18:25 10° S 20:23:17 46° W 20:28:12 10° NNW visible
24 Sep 3.0 19:41:23 10° SSE 19:46:28 86° ENE 19:51:35 10° NNW visible
24 Sep 5.8 21:23:37 10° WSW 21:26:11 14° W 21:28:46 10° NW visible
25 Sep 3.4 19:05:05 10° SE 19:09:51 43° ENE 19:14:39 10° N visible
25 Sep 5.0 20:44:41 10° SSW 20:49:01 28° W 20:53:24 10° NW visible
26 Sep 3.6 20:07:05 10° S 20:12:04 58° W 20:17:06 10° NNW visible
27 Sep 3.0 19:30:16 10° SSE 19:35:19 71° ENE 19:40:24 10° N visible
27 Sep 5.7 21:11:33 10° SW 21:14:52 17° W 21:18:11 10° NW visible
28 Sep 4.6 20:33:10 10° SSW 20:37:46 35° W 20:42:25 10° NNW visible
29 Sep 3.3 19:55:48 10° S 20:00:52 72° WSW 20:05:58 10° NNW visible
30 Sep 3.1 19:19:12 10° SSE 19:24:10 57° ENE 19:29:10 10° N visible
30 Sep 5.4 20:59:44 10° SW 21:03:33 21° W 21:07:24 10° NW visible
01 Oct 4.2 20:21:42 10° S 20:26:31 43° W 20:31:22 10° NNW visible
02 Oct 3.0 19:44:35 10° SSE 19:49:41 87° WSW 19:54:48 10° NNW visible
02 Oct 5.9 21:27:17 10° WSW 21:29:28 13° W 21:31:38 10° WNW visible
